Weather History for KWRL - October, 2012

Change the Weather History Date:

Sunday, October 21, 2012

  Actual Average Record
Temperature  
Mean Temperature 43 °F 44 °F  
Max Temperature 51 °F 58 °F 85 °F (1992)
Min Temperature 34 °F 29 °F 18 °F (1990)
Degree Days  
Heating Degree Days 22 21  
Month to date heating degree days 380 368  
Since 1 July heating degree days 468 625  
Cooling Degree Days 0 0  
Month to date cooling degree days 0 0  
Year to date cooling degree days 901 535  
Moisture  
Dew Point 33 °F    
Average Humidity 64    
Maximum Humidity 76    
Minimum Humidity 52    
Precipitation  
Precipitation 0.00 in 0.02 in 0.09 in (1978)
Month to date precipitation 0.11 0.55  
Year to date precipitation 1.90 6.85  
Sea Level Pressure  
Sea Level Pressure 29.82 in    
Wind  
Wind Speed 4 mph (North)    
Max Wind Speed 8 mph    
Max Gust Speed -    
Visibility 10 miles    
Events      
T = Trace of Precipitation, MM = Missing Value Source: NWS Daily Summary

Daily Weather History Graph

Daily Weather History Graph

Search for Another Location

Airport or City:

Trip Planner

Search our weather history database for the weather conditions in past years. The results will help you decide how hot, cold, wet, or windy it might be!

Date:

Astronomy

Oct. 21, 2012 Rise Set
Actual Time 7:34 AM MDT 6:17 PM MDT
Civil Twilight 7:05 AM MDT 6:46 PM MDT
Nautical Twilight 6:31 AM MDT 7:20 PM MDT
Astronomical Twilight 5:58 AM MDT 7:53 PM MDT
Moon 2:01 PM MDT (10/21) No Moon Set
Length of Visible Light 11h 41m
Length of Day
10h 42m
Waxing Crescent, 46% of the Moon is Illuminated
Oct 21
Waxing Crescent
Oct 21
First Quarter
Oct 29
Full
Nov 6
Last Quarter
Nov 13
New

Hourly Weather History & Observations

Time (MDT) Temp. Windchill Dew Point Humidity Pressure Visibility Wind Dir Wind Speed Gust Speed Precip Events Conditions
12:53 AM 46.9 °F - 33.1 °F 59% 29.65 in 10.0 mi NW 8.1 mph - N/A   Clear
1:53 AM 45.0 °F 40.6 °F 34.0 °F 65% 29.69 in 10.0 mi NNW 8.1 mph - N/A   Mostly Cloudy
2:53 AM 43.0 °F 38.8 °F 33.1 °F 68% 29.71 in 10.0 mi NW 6.9 mph - N/A   Clear
3:53 AM 43.0 °F 40.3 °F 32.0 °F 65% 29.75 in 10.0 mi North 4.6 mph - N/A   Partly Cloudy
4:53 AM 42.1 °F 39.2 °F 32.0 °F 67% 29.78 in 10.0 mi NW 4.6 mph - N/A   Mostly Cloudy
5:53 AM 41.0 °F - 30.0 °F 65% 29.79 in 10.0 mi Calm Calm - N/A   Mostly Cloudy
6:53 AM 39.9 °F 37.8 °F 32.0 °F 73% 29.81 in 10.0 mi NE 3.5 mph - N/A   Partly Cloudy
7:53 AM 39.0 °F 36.8 °F 32.0 °F 76% 29.82 in 10.0 mi NE 3.5 mph - N/A   Clear
8:53 AM 39.9 °F 34.5 °F 32.0 °F 73% 29.86 in 10.0 mi NNE 8.1 mph - N/A   Clear
9:53 AM 41.0 °F 38.0 °F 33.1 °F 73% 29.86 in 10.0 mi North 4.6 mph - N/A   Clear
10:53 AM 42.1 °F 38.4 °F 33.1 °F 70% 29.87 in 10.0 mi North 5.8 mph - N/A   Partly Cloudy
11:53 AM 43.0 °F - 33.1 °F 68% 29.87 in 10.0 mi Calm Calm - N/A   Clear
12:53 PM 45.0 °F - 33.1 °F 63% 29.87 in 10.0 mi Calm Calm - N/A   Scattered Clouds
1:53 PM 46.9 °F - 33.1 °F 59% 29.85 in 10.0 mi North 3.5 mph - N/A   Overcast
2:53 PM 48.0 °F - 33.1 °F 56% 29.82 in 10.0 mi SSE 8.1 mph - N/A   Overcast
3:53 PM 50.0 °F - 34.0 °F 54% 29.81 in 10.0 mi ESE 6.9 mph - N/A   Scattered Clouds
4:53 PM 50.0 °F - 35.1 °F 57% 29.80 in 10.0 mi East 3.5 mph - N/A   Clear
5:53 PM 48.9 °F - 35.1 °F 59% 29.81 in 10.0 mi North 4.6 mph - N/A   Clear
6:53 PM 46.9 °F - 34.0 °F 61% 29.82 in 10.0 mi North 3.5 mph - N/A   Clear
7:53 PM 46.9 °F - 33.1 °F 59% 29.86 in 10.0 mi Calm Calm - N/A   Mostly Cloudy
8:53 PM 44.1 °F - 32.0 °F 63% 29.87 in 10.0 mi Calm Calm - N/A   Partly Cloudy
9:53 PM 41.0 °F - 30.9 °F 67% 29.87 in 10.0 mi Calm Calm - N/A   Scattered Clouds
10:53 PM 37.9 °F 33.5 °F 28.9 °F 70% 29.86 in 10.0 mi SE 5.8 mph - N/A   Clear
11:53 PM 37.0 °F 34.5 °F 30.0 °F 76% 29.87 in 10.0 mi West 3.5 mph - N/A   Clear